Date,TemperatureHighF,TemperatureAvgF,TemperatureLowF,DewpointHighF,DewpointAvgF,DewpointLowF,HumidityHigh,HumidityAvg,HumidityLow,PressureMaxIn,PressureMinIn,WindSpeedMaxMPH,WindSpeedAvgMPH,GustSpeedMaxMPH,PrecipitationSumIn
2013-4-1,39.3,35.8,31.6,35.9,30.6,20.5,96,83,47,29.85,29.44,4,1,11,0.30
2013-4-2,30.9,23.1,16.3,25.5,12.5,5.9,81,64,42,29.62,29.45,7,4,20,0.00
2013-4-3,32.2,21.5,10.0,20.5,10.9,1.7,81,64,48,29.79,29.58,7,4,24,0.00
2013-4-4,44.4,32.6,21.5,27.5,13.2,5.7,82,48,24,30.00,29.79,9,4,12,0.00
2013-4-5,40.6,35.3,28.7,33.7,30.1,24.5,94,82,58,29.86,29.65,4,2,13,0.00
2013-4-6,29.4,24.0,17.7,23.7,9.1,3.8,82,54,35,30.27,29.73,10,5,17,0.00
2013-4-7,36.7,26.2,9.3,31.3,14.4,4.5,89,62,45,30.30,29.86,6,2,9,0.00
2013-4-8,41.9,35.1,27.5,33.5,29.6,25.2,94,81,59,30.15,29.81,6,2,12,0.00
2013-4-9,38.2,32.5,24.8,35.7,30.3,23.4,97,92,80,30.16,29.93,2,0,4,0.07
2013-4-10,43.1,36.7,30.4,34.5,30.6,20.9,98,80,57,29.94,29.86,7,2,9,0.02
2013-4-11,36.0,30.7,24.4,19.8,13.9,10.1,62,50,37,30.19,29.88,9,4,12,0.00
2013-4-12,43.5,32.6,21.0,31.5,20.4,15.6,96,63,37,30.27,30.06,3,1,5,0.00
2013-4-13,38.8,34.2,30.6,35.3,32.5,29.6,98,94,86,30.04,29.85,2,0,3,0.43
2013-4-14,40.8,34.6,31.5,35.4,32.7,30.7,98,93,79,30.18,29.91,2,0,6,0.15
2013-4-15,51.3,39.5,26.5,33.4,29.4,25.8,99,71,40,30.37,30.18,3,1,6,0.00
2013-4-16,46.9,41.3,35.9,40.6,36.2,29.7,95,82,65,30.32,29.73,8,4,20,0.18
2013-4-17,46.3,40.6,32.8,42.1,27.8,19.4,94,63,36,30.34,29.75,9,5,16,0.04
2013-4-18,46.0,35.2,21.8,33.3,23.0,17.6,93,65,33,30.48,29.98,7,1,8,0.08
2013-4-19,67.3,53.6,38.7,54.5,43.3,28.0,86,68,56,29.95,29.49,8,4,12,0.00
2013-4-20,59.2,45.9,36.8,56.4,40.3,27.4,97,82,52,29.97,29.43,6,3,11,0.36
2013-4-21,39.9,31.5,23.4,31.4,17.3,10.5,84,57,30,30.73,30.01,7,3,10,0.01
2013-4-22,52.7,36.0,17.2,22.1,17.0,14.9,94,53,23,30.84,30.64,5,2,10,0.00
2013-4-23,56.6,42.1,23.7,26.7,19.3,11.2,88,46,17,30.64,30.32,6,2,13,0.00
2013-4-24,55.6,47.0,37.0,50.1,42.3,29.3,99,84,55,30.30,29.70,4,1,7,0.00
2013-4-25,53.2,47.1,30.9,49.5,37.2,26.8,98,72,40,30.31,29.65,8,4,10,0.03
2013-4-26,58.1,40.6,25.3,28.4,25.2,19.4,96,61,22,30.48,30.32,4,1,9,0.00
2013-4-27,61.8,41.9,24.4,31.1,26.1,21.8,95,61,22,30.46,30.28,4,1,7,0.00
2013-4-28,67.5,47.4,27.0,33.4,28.6,25.4,96,57,22,30.35,30.20,4,1,9,0.00
2013-4-29,72.3,52.0,29.7,39.1,31.6,27.5,93,53,20,30.28,30.16,4,1,4,0.00
2013-4-30,74.0,55.7,31.5,42.5,33.8,28.3,88,50,20,30.35,30.24,5,1,14,0.00